This is the latest recevied weather packets stored in our database for station/object KC1BRV. If no packets are shown the sender has not sent any weather packets the latest 10 day(s).
| Time | Temp. | Humidity | Pressure | Rain* | Wind** | Luminosity | Snow |
|---|---|---|---|---|---|---|---|
| 1778104916 | 13.89° C | 95% | 1008.3 hPa | 0 mm | - | 59 W/m² | - |
| 1778104613 | 13.89° C | 95% | 1008.5 hPa | 0 mm | - | 52 W/m² | - |
| 1778104309 | 13.89° C | 94% | 1008.5 hPa | 0 mm | - | 39 W/m² | - |
| 1778104006 | 13.89° C | 94% | 1008.6 hPa | 0 mm | - | 41 W/m² | - |
| 1778103703 | 13.89° C | 94% | 1008.7 hPa | 1.78 mm | - | 21 W/m² | - |
| 1778103402 | 13.89° C | 94% | 1008.9 hPa | 1.78 mm | - | 24 W/m² | - |
| 1778103098 | 13.89° C | 94% | 1008.8 hPa | 0 mm | - | 24 W/m² | - |
| 1778102796 | 13.89° C | 93% | 1008.9 hPa | 0 mm | - | 52 W/m² | - |
| 1778102490 | 13.89° C | 93% | 1008.9 hPa | 0 mm | - | 31 W/m² | - |
| 1778102186 | 14.44° C | 93% | 1008.7 hPa | 1.27 mm | - | 40 W/m² | - |
| 1778101883 | 14.44° C | 93% | 1009 hPa | 1.27 mm | - | 50 W/m² | - |
| 1778101580 | 14.44° C | 92% | 1009.1 hPa | 0 mm | - | 56 W/m² | - |
| 1778101277 | 14.44° C | 92% | 1009 hPa | 0 mm | - | 58 W/m² | - |
| 1778100974 | 14.44° C | 91% | 1009 hPa | 0 mm | - | 138 W/m² | - |
| 1778100668 | 14.44° C | 91% | 1009.2 hPa | 0 mm | - | 88 W/m² | - |
| 1778100367 | 14.44° C | 91% | 1009.1 hPa | 0 mm | - | 95 W/m² | - |
| 1778100064 | 14.44° C | 91% | 1009.2 hPa | 0 mm | - | 101 W/m² | - |
| 1778099762 | 14.44° C | 91% | 1009.3 hPa | 0 mm | - | 95 W/m² | - |
| 1778099458 | 14.44° C | 91% | 1009.1 hPa | 0 mm | - | 99 W/m² | - |
| 1778099156 | 14.44° C | 92% | 1009.3 hPa | 0 mm | - | 98 W/m² | - |
| 1778098852 | 14.44° C | 91% | 1009.1 hPa | 0 mm | - | 92 W/m² | - |
| 1778098550 | 14.44° C | 91% | 1009.2 hPa | 0 mm | - | 80 W/m² | - |
| 1778098246 | 14.44° C | 91% | 1009.3 hPa | 0 mm | - | 57 W/m² | - |
| 1778097942 | 15° C | 91% | 1009.4 hPa | 1.78 mm | - | 66 W/m² | - |
| 1778097639 | 15° C | 90% | 1009.6 hPa | 1.78 mm | - | 62 W/m² | - |
* Rain latest hour (hover to see other rain measurements)
** Current wind speed in m/s (hover to see current wind gust speed)